1508940000.24,61370,11.19,74136.8,1.75,-3.11,-2.19,0,*74
1508940001.46,61371,11.19,74146.3,1.77,-3.31,-2.15,0,*79
1508940002.68,61372,11.19,74138.8,1.75,-3.67,-2.31,0,*7D
1508940003.94,61373,11.19,74134.8,1.77,-3.91,-2.11,0,*75
1508940005.19,61374,11.19,74132.0,1.77,-3.51,-1.79,0,*73
1508940006.41,61375,11.19,74134.3,1.77,-3.31,-1.55,0,*7A
1508940007.63,61376,11.19,74136.0,1.75,-3.07,-1.47,0,*7D
1508940008.87,61377,11.19,74134.5,1.75,-2.71,-1.43,0,*78
1508940010.08,61378,11.19,74134.3,1.75,-2.59,-1.59,0,*76
1508940011.33,61379,11.19,74128.3,1.75,-2.47,-1.47,0,*77
1508940012.55,61380,11.19,74126.3,1.75,-2.43,-1.43,0,*71
1508940013.79,61381,11.19,74124.8,1.75,-2.55,-1.47,0,*73
1508940014.98,61382,11.19,74128.5,1.75,-2.31,-1.33,0,*71
1508940016.2,61383,11.19,74130.3,1.75,-2.03,-1.29,0,*7A
1508940017.42,61384,11.19,74132.0,1.75,-1.91,-1.21,0,*7D
1508940018.63,61385,11.19,74128.3,1.75,-1.95,-1.29,0,*70
1508940019.85,61386,11.19,74132.5,1.75,-1.83,-1.29,0,*74
1508940021.07,61387,11.19,74130.8,1.75,-1.43,-1.17,0,*74
1508940022.27,61388,11.19,74140.3,1.75,-1.29,-1.17,0,*77
1508940023.49,61389,11.19,74132.0,1.75,-1.47,-1.29,0,*73
1508940024.68,61390,11.19,74132.3,1.75,-1.55,-1.29,0,*78
1508940025.89,61391,11.19,74132.3,1.75,-1.67,-1.43,0,*74
1508940027.11,61392,11.19,74134.8,1.75,-1.91,-1.55,0,*79
1508940028.36,61393,11.19,74132.5,1.75,-2.03,-1.47,0,*73
1508940029.59,61394,11.19,74130.0,1.73,-2.23,-1.47,0,*70
1508940030.8,61395,11.19,74136.0,1.73,-2.31,-1.33,0,*71
1508940032.02,61396,11.19,74132.0,1.71,-2.19,-1.21,0,*79
1508940033.23,61397,11.19,74130.5,1.71,-2.23,-1.33,0,*72
1508940034.47,61398,11.19,74132.5,1.73,-2.03,-1.21,0,*7E
1508940035.72,61399,11.19,74136.3,1.73,-1.91,-0.97,0,*4B
1508940036.93,61400,11.19,74132.0,1.71,-1.59,-0.73,0,*40
1508940038.18,61401,11.19,74134.0,1.73,-1.05,-0.41,0,*4B
1508940039.39,61402,11.19,74132.8,1.73,-0.73,-0.53,0,*7B
1508940040.59,61403,11.19,74134.5,1.73,-0.57,-0.53,0,*7C
1508940041.8,61404,11.19,74134.8,1.71,-0.73,-0.73,0,*7D
1508940043.05,61405,11.19,74138.3,1.73,-0.93,-0.97,0,*7A
1508940044.31,61406,11.19,74132.0,1.71,-1.01,-0.97,0,*41
1508940045.56,61407,11.19,74134.0,1.71,-1.13,-0.89,0,*4C
1508940046.82,61408,11.19,74130.8,1.73,-1.05,-0.93,0,*4D
1508940048.07,61409,11.19,74136.5,1.71,-1.13,-1.21,0,*71
1508940049.29,61410,11.19,74130.5,1.73,-1.17,-1.21,0,*7F
1508940050.5,61411,11.19,74126.3,1.71,-1.63,-1.51,0,*78
1508940051.71,61412,11.19,74128.0,1.73,-1.55,-1.29,0,*73
1508940052.94,61413,11.19,74124.8,1.73,-1.55,-1.13,0,*7B
1508940054.16,61414,11.19,74120.0,1.73,-1.29,-0.73,0,*40
1508940055.39,61415,11.19,74124.8,1.73,-1.09,-0.61,0,*40
1508940056.62,61416,11.19,74122.3,1.73,-1.09,-0.69,0,*4B
1508940057.83,61417,11.19,74120.5,1.73,-1.33,-0.73,0,*48
1508940059.07,61418,11.19,74126.0,1.73,-1.47,-0.73,0,*44
1508940060.29,61419,11.19,74118.8,1.75,-1.71,-0.85,0,*4F
1508940061.5,61420,11.19,74110.5,1.77,-1.51,-0.81,0,*41
1508940062.74,61421,11.19,74112.3,1.75,-1.39,-0.85,0,*48
1508940063.93,61422,11.19,74124.8,1.75,-1.21,-0.73,0,*4B
1508940065.15,61423,11.19,74122.8,1.77,-1.29,-0.69,0,*4B
1508940066.34,61424,11.19,74100.3,1.75,-1.79,-1.29,0,*7E
1508940067.59,61425,11.19,74118.3,1.77,-1.99,-1.29,0,*73
1508940068.8,61426,11.19,74112.5,1.75,-2.15,-1.09,0,*77
1508940070.04,61427,11.19,74112.5,1.77,-2.15,-1.05,0,*78
1508940071.26,61428,11.19,74112.3,1.75,-2.31,-1.05,0,*73
1508940072.51,61429,11.19,74108.5,1.77,-1.99,-0.77,0,*45
1508940073.72,61430,11.19,74110.3,1.77,-1.79,-0.81,0,*4A
1508940074.97,61431,11.19,74110.5,1.77,-1.39,-0.49,0,*4B
1508940076.18,61432,11.19,74100.5,1.75,-0.93,-0.19,0,*7E
1508940077.39,61433,11.19,74106.3,1.77,-0.65,-0.37,0,*78
1508940078.61,61434,11.19,74112.8,1.77,-0.49,-0.37,0,*71
1508940079.82,61435,11.19,74106.8,1.77,-0.49,-0.49,0,*79
1508940081.03,61436,11.19,74116.8,1.77,-0.65,-0.77,0,*79
1508940082.28,61437,11.19,74110.5,1.75,-1.13,-1.47,0,*78
1508940083.49,61438,11.19,74118.5,1.77,-1.51,-1.75,0,*72
1508940084.71,61439,11.19,74122.8,1.77,-1.79,-1.79,0,*75
1508940085.95,61440,11.19,74130.3,1.77,-2.15,-2.03,0,*7C
1508940087.17,61441,11.19,74136.5,1.75,-2.43,-2.07,0,*78
1508940088.45,61442,11.19,74138.3,1.77,-2.63,-1.99,0,*7F
1508940089.66,61443,11.19,74132.5,1.75,-2.91,-1.95,0,*7D
1508940090.87,61444,11.19,74132.8,1.75,-3.23,-1.91,0,*76
1508940092.07,61445,11.19,74128.8,1.75,-3.07,-1.67,0,*78
1508940093.32,61446,11.19,74128.3,1.75,-2.71,-1.47,0,*79
1508940094.5,61447,11.19,74134.5,1.75,-2.35,-1.17,0,*7D
1508940095.7,61448,11.19,74114.0,1.75,-1.71,-0.81,0,*4F
1508940096.91,61449,11.19,74114.8,1.75,-1.71,-0.85,0,*4A
1508940098.13,61450,11.19,74114.3,1.75,-1.79,-1.05,0,*73
1508940099.34,61451,11.19,74114.5,1.77,-1.25,-0.57,0,*4F
1508940100.54,61452,11.19,74120.0,1.75,-1.17,-0.53,0,*4B
1508940101.73,61453,11.19,74124.0,1.75,-0.81,-0.33,0,*72
1508940102.91,61454,11.19,74116.5,1.75,-0.73,-0.53,0,*7E
1508940104.12,61455,11.19,74116.5,1.77,-0.81,-0.65,0,*75
1508940105.31,61456,11.19,74112.0,1.75,-0.57,-0.53,0,*7A
1508940106.52,61457,11.19,74108.3,1.77,-0.49,-0.49,0,*7D
1508940107.73,61458,11.19,74108.8,1.77,-0.49,-0.41,0,*7A
1508940108.94,61459,11.19,74112.0,1.77,-0.69,-0.57,0,*7E
1508940110.16,61460,11.19,74110.8,1.77,-0.53,-0.41,0,*7A
1508940111.38,61461,11.19,74108.5,1.77,-0.77,-0.49,0,*75
1508940112.61,61462,11.19,74102.0,1.77,-0.89,-0.57,0,*78
1508940113.8,61463,11.19,74094.5,1.75,-1.21,-0.81,0,*43
1508940115.05,61464,11.19,74090.0,1.77,-1.05,-0.57,0,*4B
1508940116.29,61465,11.13,74094.8,1.77,-1.13,-0.57,0,*4D
1508940117.48,61466,11.19,74096.8,1.75,-1.21,-0.69,0,*40
1508940118.71,61467,11.19,74102.0,1.77,-1.17,-0.49,0,*44
1508940119.93,61468,11.19,74110.8,1.75,-1.05,-0.41,0,*42
1508940121.14,61469,11.19,74114.0,1.77,-0.81,-0.29,0,*72
1508940122.38,61470,11.19,74106.5,1.77,-0.89,-0.37,0,*7D
1508940123.59,61471,11.19,74108.3,1.77,-0.69,-0.03,0,*45
1508940124.8,61472,11.19,74114.3,1.77,-0.81,-0.29,0,*78
1508940126.01,61473,11.19,74126.0,1.79,-0.93,-0.41,0,*7A
1508940127.26,61474,11.19,74114.5,1.77,-1.05,-0.49,0,*45
1508940128.48,61475,11.19,74112.8,1.77,-1.29,-0.69,0,*48
1508940129.69,61476,11.19,74118.0,1.79,-1.35,-0.81,0,*4E
1508940130.89,61477,11.19,74114.3,1.75,-1.21,-0.53,0,*49
1508940132.13,61478,11.19,74114.5,1.77,-1.01,-0.37,0,*44
1508940133.34,61479,11.19,74116.0,1.77,-0.73,-0.29,0,*7E
1508940134.52,61480,11.19,74112.5,1.75,-0.69,-0.29,0,*71
1508940135.73,61481,11.19,74126.0,1.77,-0.49,-0.19,0,*73
1508940136.95,61482,11.19,74120.3,1.77,-0.81,-0.37,0,*78
1508940138.17,61483,11.19,74118.3,1.77,-0.65,-0.15,0,*73
1508940139.4,61484,11.19,74120.3,1.77,-0.69,-0.27,0,*79
1508940140.62,61485,11.19,74124.8,1.77,-0.69,-0.15,0,*79
1508940141.83,61486,11.19,74128.5,1.77,-0.57,-0.07,0,*44
1508940143.03,61487,11.19,74134.5,1.77,-0.49,0.05,0,*65
1508940144.23,61488,11.19,74136.5,1.77,-0.49,-0.07,0,*45
1508940145.44,61489,11.19,74134.5,1.77,-0.41,-0.07,0,*4C
1508940146.65,61490,11.19,74116.0,1.77,-0.49,-0.03,0,*48
1508940147.86,61491,11.19,74122.5,1.77,-0.41,-0.07,0,*45
1508940149.08,61492,11.19,74116.5,1.77,-0.41,-0.15,0,*75
1508940150.3,61493,11.19,74114.5,1.77,-0.23,0.01,0,*68
1508940151.52,61494,11.19,74102.5,1.77,0.05,0.25,0,*40
1508940152.74,61495,11.19,74100.5,1.77,-0.03,0.37,0,*69
1508940153.99,61496,11.19,74100.5,1.77,0.17,0.47,0,*75
1508940155.2,61497,11.19,74100.3,1.77,0.43,0.71,0,*70
1508940156.38,61498,11.19,74102.0,1.79,0.43,0.67,0,*76
1508940157.61,61499,11.19,74102.3,1.79,0.47,0.55,0,*72
1508940158.82,61500,11.19,74106.0,1.79,0.67,0.71,0,*77
1508940160.07,61501,11.19,74102.0,1.77,0.71,0.71,0,*7F
1508940161.28,61502,11.19,74100.5,1.83,0.67,0.75,0,*74
1508940162.49,61503,11.19,74102.5,1.79,0.67,0.67,0,*73
1508940163.7,61504,11.19,74102.5,1.79,0.59,0.67,0,*79
1508940164.94,61505,11.19,74114.3,1.81,0.59,0.63,0,*7B
1508940166.16,61506,11.19,74112.5,1.79,0.55,0.67,0,*77
1508940167.38,61507,11.19,74118.0,1.79,0.55,0.55,0,*77
1508940168.62,61508,11.19,74124.8,1.81,0.41,0.47,0,*79
1508940169.86,61509,11.19,74120.3,1.81,0.13,0.25,0,*7B
1508940171.07,61510,11.19,74126.0,1.81,0.09,0.21,0,*4C
1508940172.27,61511,11.19,74110.8,1.79,0.05,0.21,0,*46
1508940173.48,61512,11.19,74114.5,1.81,0.01,0.25,0,*42
1508940174.71,61513,11.19,74118.3,1.81,0.21,0.37,0,*72
1508940175.93,61514,11.19,74108.3,1.79,0.17,0.33,0,*73
1508940177.12,61515,11.19,74094.0,1.81,-0.15,0.01,0,*6B
1508940178.36,61516,11.19,74110.0,1.81,0.21,0.37,0,*77
1508940179.57,61517,11.19,74108.5,1.79,0.25,0.33,0,*71
1508940180.79,61518,11.19,74100.3,1.79,0.33,0.37,0,*7D
1508940182.0,61519,11.19,74110.0,1.77,0.43,0.55,0,*71
1508940183.19,61520,11.19,74102.8,1.79,0.43,0.37,0,*71
1508940184.44,61521,11.19,74112.5,1.77,0.55,0.67,0,*7C
1508940185.65,61522,11.19,74118.5,1.79,0.67,0.71,0,*77
1508940186.9,61523,11.19,74112.0,1.81,0.51,0.59,0,*7E
1508940188.12,61524,11.19,74118.5,1.79,0.47,0.55,0,*75
1508940189.36,61525,11.19,74114.5,1.81,0.71,0.71,0,*70
1508940190.6,61526,11.19,74118.8,1.81,0.63,0.75,0,*74
1508940191.82,61527,11.19,74110.5,1.79,0.59,0.59,0,*75
1508940193.05,61528,11.19,74110.0,1.81,0.75,0.83,0,*74
1508940194.3,61529,11.19,74110.0,1.81,0.51,0.51,0,*7C
1508940195.52,61530,11.19,74114.3,1.79,0.47,0.59,0,*7C
1508940196.76,61531,11.19,74120.0,1.81,0.71,0.71,0,*75
1508940197.99,61532,11.19,74136.5,1.81,0.59,0.71,0,*7C
1508940199.16,61533,11.19,74132.5,1.83,0.43,0.43,0,*75
1508940200.34,61534,11.19,74136.8,1.83,0.43,0.55,0,*75
1508940201.58,61535,11.19,74132.5,1.81,0.29,0.47,0,*79
1508940202.8,61536,11.19,74128.3,1.79,0.17,0.25,0,*74
1508940204.03,61537,11.19,74122.0,1.81,0.21,0.37,0,*74
1508940205.27,61538,11.19,74116.5,1.81,0.37,0.47,0,*7B
1508940206.51,61539,11.19,74124.5,1.81,0.41,0.51,0,*7C
1508940207.75,61540,11.19,74120.3,1.81,0.37,0.37,0,*73
1508940208.97,61541,11.19,74126.8,1.79,0.37,0.47,0,*72
1508940210.2,61542,11.19,74112.0,1.81,0.37,0.41,0,*70
1508940211.39,61543,11.19,74112.8,1.83,0.43,0.51,0,*71
1508940212.61,61544,11.19,74128.0,1.79,0.59,0.59,0,*70
1508940213.84,61545,11.19,74116.8,1.81,0.75,0.79,0,*7A
1508940215.06,61546,11.19,74112.3,1.79,0.71,0.79,0,*7A
1508940216.3,61547,11.19,74110.8,1.81,0.63,0.83,0,*7A
1508940217.53,61548,11.19,74116.0,1.81,0.37,0.37,0,*7B
1508940218.75,61549,11.19,74100.5,1.79,0.33,0.37,0,*79
1508940219.99,61550,11.19,74112.0,1.81,0.47,0.63,0,*74
1508940221.23,61551,11.19,74112.8,1.81,0.47,0.59,0,*7C
1508940222.46,61552,11.19,74116.5,1.81,0.59,0.63,0,*79
1508940223.65,61553,11.19,74112.8,1.83,0.43,0.51,0,*70
1508940224.89,61554,11.19,74108.3,1.81,0.47,0.47,0,*76
1508940226.08,61555,11.19,74112.3,1.83,0.43,0.55,0,*72
1508940227.3,61556,11.19,74118.0,1.83,0.51,0.55,0,*72
1508940228.49,61557,11.19,74122.5,1.83,0.43,0.55,0,*70
1508940229.68,61558,11.19,74126.3,1.83,0.29,0.43,0,*74
1508940230.91,61559,11.13,74118.3,1.81,0.13,0.25,0,*7E
1508940232.14,61560,11.19,74122.5,1.81,0.13,0.25,0,*74
1508940233.38,61561,11.19,74122.5,1.81,0.13,0.25,0,*75
1508940234.56,61562,11.19,74122.8,1.83,0.33,0.43,0,*76
1508940235.75,61563,11.19,74122.5,1.83,0.43,0.51,0,*73
1508940236.97,61564,11.19,74118.5,1.83,0.51,0.63,0,*76
1508940238.15,61565,11.19,74124.8,1.83,0.43,0.55,0,*71
1508940239.35,61566,11.19,74120.5,1.83,0.41,0.43,0,*77
1508940240.56,61567,11.19,74122.8,1.83,0.41,0.51,0,*75
1508940241.75,61568,11.19,74122.3,1.83,0.41,0.43,0,*79
1508940242.97,61569,11.19,74122.5,1.83,0.51,0.55,0,*7E
1508940244.21,61570,11.19,74114.3,1.81,0.59,0.63,0,*79
1508940245.45,61571,11.19,74114.8,1.81,0.59,0.59,0,*71
1508940246.69,61572,11.19,74116.0,1.81,0.83,0.83,0,*72
1508940247.93,61573,11.19,74120.5,1.81,0.95,0.95,0,*73
1508940249.17,61574,11.19,74122.5,1.81,0.83,0.87,0,*70
1508940250.42,61575,11.19,74120.5,1.85,0.79,0.91,0,*77
1508940251.59,61576,11.19,74118.0,1.83,0.97,0.97,0,*74
1508940252.84,61577,11.19,74124.5,1.85,0.87,0.91,0,*74
1508940254.09,61578,11.19,74126.5,1.85,0.91,0.91,0,*7C
1508940255.34,61579,11.19,74122.0,1.85,0.87,0.91,0,*7A
1508940256.59,61580,11.19,74120.8,1.85,0.87,0.87,0,*7B
1508940257.83,61581,11.19,74120.8,1.85,0.79,0.87,0,*7B
1508940259.07,61582,11.19,74126.8,1.85,0.79,0.79,0,*79
1508940260.31,61583,11.19,74118.0,1.85,0.67,0.75,0,*7B
1508940261.55,61584,11.19,74132.5,1.85,0.75,0.75,0,*7F
1508940262.79,61585,11.19,74134.8,1.85,0.75,0.75,0,*7E
1508940264.03,61586,11.19,74130.3,1.89,0.55,0.59,0,*7D
1508940265.25,61587,11.19,74132.3,1.91,0.47,0.67,0,*7B
1508940266.49,61588,11.19,74124.5,1.89,0.37,0.47,0,*78
1508940267.72,61589,11.19,74130.8,1.85,0.13,0.41,0,*75
1508940268.96,61590,11.19,74132.3,1.89,0.33,0.55,0,*76
1508940270.17,61591,11.19,74136.8,1.89,-0.07,0.29,0,*66
1508940271.36,61592,11.19,74134.0,1.89,-0.07,0.09,0,*57
1508940272.56,61593,11.19,74134.3,1.85,-0.29,-0.07,0,*45
1508940273.75,61594,11.19,74134.8,1.83,-0.07,0.33,0,*62
1508940274.96,61595,11.19,74130.3,1.85,-0.07,0.25,0,*62
1508940276.19,61596,11.19,74128.8,1.85,-0.11,0.13,0,*53
1508940277.38,61597,11.19,74130.5,1.83,-0.07,0.13,0,*63
1508940278.57,61598,11.19,74132.3,1.83,0.05,0.29,0,*4A
1508940279.78,61599,11.19,74134.5,1.83,0.13,0.29,0,*7C
1508940280.99,61600,11.19,74134.8,1.83,0.13,0.29,0,*7F
1508940282.22,61601,11.19,74128.8,1.85,0.29,0.41,0,*7F
1508940283.46,61602,11.19,74128.0,1.85,0.41,0.41,0,*72
1508940284.69,61603,11.19,74132.8,1.85,0.41,0.41,0,*73
1508940285.93,61604,11.19,74124.5,1.85,0.51,0.63,0,*75
1508940287.12,61605,11.19,74120.0,1.83,0.43,0.55,0,*74
1508940288.33,61606,11.19,74120.5,1.83,0.25,0.29,0,*7C
1508940289.57,61607,11.19,74128.8,1.85,0.17,0.25,0,*76
1508940290.78,61608,11.19,74136.8,1.83,0.29,0.41,0,*70
1508940291.99,61609,11.19,74136.0,1.83,0.41,0.51,0,*7E
1508940293.18,61610,11.19,74136.5,1.83,0.43,0.51,0,*74
1508940294.41,61611,11.19,74134.3,1.85,0.33,0.25,0,*77
1508940295.62,61612,11.19,74134.3,1.83,0.29,0.41,0,*7B
1508940296.79,61613,11.19,74138.3,1.83,0.43,0.43,0,*74
1508940297.97,61614,11.19,74134.5,1.83,0.43,0.55,0,*74
1508940299.18,61615,11.19,74132.8,1.83,0.33,0.29,0,*79
1508940300.42,61616,11.19,74130.3,1.85,0.13,0.13,0,*77
1508940301.65,61617,11.19,74126.5,1.85,0.13,0.17,0,*72
1508940302.88,61618,11.19,74126.3,1.85,0.29,0.41,0,*77
1508940304.12,61619,11.19,74128.8,1.85,0.41,0.41,0,*78
1508940305.31,61620,11.19,74134.8,1.83,0.43,0.55,0,*73
1508940306.51,61621,11.19,74136.3,1.83,0.17,0.41,0,*76
1508940307.73,61622,11.19,74132.8,1.83,0.13,0.29,0,*7F
1508940308.92,61623,11.19,74128.8,1.83,0.41,0.43,0,*75
1508940310.1,61624,11.19,74124.8,1.83,0.43,0.51,0,*73
1508940311.32,61625,11.19,74122.8,1.83,0.41,0.51,0,*70
1508940312.53,61626,11.19,74124.5,1.83,0.55,0.67,0,*73
1508940313.75,61627,11.19,74116.8,1.83,0.63,0.87,0,*79
1508940314.99,61628,11.19,74114.8,1.85,0.75,0.79,0,*76
1508940316.22,61629,11.19,74116.0,1.85,0.75,0.79,0,*77
1508940317.43,61630,11.19,74130.0,1.83,0.75,0.79,0,*79
1508940318.67,61631,11.19,74130.0,1.85,0.87,0.79,0,*73
1508940319.92,61632,11.19,74120.5,1.85,0.79,0.79,0,*71
1508940321.17,61633,11.19,74118.3,1.85,0.79,0.91,0,*76
1508940322.42,61634,11.19,74120.5,1.85,0.91,0.87,0,*70
1508940323.67,61635,11.19,74132.3,1.85,0.79,0.91,0,*70
1508940324.91,61636,11.19,74120.8,1.85,0.55,0.63,0,*70
1508940326.14,61637,11.19,74122.0,1.85,0.75,0.79,0,*78
1508940327.38,61638,11.19,74120.5,1.85,0.55,0.63,0,*7E
1508940328.63,61639,11.19,74122.8,1.85,0.51,0.51,0,*7A
1508940329.87,61640,11.19,74124.3,1.85,0.79,0.87,0,*75
1508940331.09,61641,11.19,74132.3,1.85,0.87,0.97,0,*74
1508940332.31,61642,11.19,74128.3,1.83,0.75,0.75,0,*70
1508940333.49,61643,11.19,74140.0,1.85,0.43,0.43,0,*77
1508940334.71,61644,11.19,74128.3,1.83,0.41,0.51,0,*77
1508940335.94,61645,11.19,74126.3,1.85,0.33,0.41,0,*74
1508940337.16,61646,11.19,74128.3,1.83,0.51,0.51,0,*74
1508940338.37,61647,11.19,74124.0,1.85,0.43,0.51,0,*70
1508940339.58,61648,11.19,74138.5,1.83,0.41,0.41,0,*7A
1508940340.76,61649,11.19,74130.0,1.83,0.43,0.51,0,*78
1508940341.95,61650,11.19,74128.5,1.83,0.33,0.43,0,*74
1508940343.14,61651,11.19,74126.3,1.83,0.41,0.43,0,*70
1508940344.36,61652,11.19,74124.3,1.83,0.51,0.51,0,*71
1508940345.57,61653,11.19,74120.3,1.83,0.51,0.63,0,*71
1508940346.8,61654,11.19,74124.3,1.83,0.55,0.55,0,*77
1508940347.99,61655,11.19,74128.0,1.83,0.43,0.51,0,*75
1508940349.22,61656,11.19,74128.8,1.81,0.41,0.41,0,*77
1508940350.44,61657,11.19,74132.0,1.79,0.51,0.47,0,*76
1508940351.67,61658,11.19,74128.8,1.79,0.55,0.59,0,*72
1508940352.91,61659,11.19,74128.0,1.81,0.47,0.51,0,*7F
1508940354.15,61660,11.19,74136.3,1.81,0.47,0.51,0,*75
1508940355.38,61661,11.19,74140.8,1.79,0.47,0.55,0,*77
1508940356.61,61662,11.19,74144.8,1.81,0.63,0.71,0,*73
1508940357.83,61663,11.19,74146.3,1.83,0.75,0.75,0,*73
1508940359.05,61664,11.19,74144.5,1.83,0.51,0.51,0,*74
1508940360.29,61665,11.19,74142.5,1.81,0.47,0.51,0,*70
1508940361.5,61666,11.19,74142.0,1.83,0.71,0.79,0,*7E
1508940362.74,61667,11.19,74140.5,1.81,0.63,0.75,0,*72
1508940363.98,61668,11.19,74136.0,1.81,0.63,0.75,0,*7D
1508940365.22,61669,11.19,74130.5,1.81,0.71,0.63,0,*78
1508940366.46,61670,11.19,74130.5,1.81,0.63,0.59,0,*7A
1508940367.7,61671,11.19,74142.5,1.81,0.51,0.59,0,*7A
1508940368.94,61672,11.19,74130.8,1.81,0.47,0.51,0,*76
1508940370.16,61673,11.19,74128.0,1.79,0.37,0.47,0,*70
1508940371.4,61674,11.19,74138.0,1.81,0.41,0.47,0,*71
1508940372.63,61675,11.19,74150.8,1.81,0.41,0.41,0,*76
1508940373.87,61676,11.19,74146.5,1.81,0.29,0.29,0,*75
1508940375.09,61677,11.19,74142.0,1.79,0.17,0.21,0,*76
1508940376.3,61678,11.19,74136.5,1.79,0.33,0.33,0,*7C
1508940377.52,61679,11.19,74132.0,1.79,0.47,0.47,0,*7D
1508940378.74,61680,11.19,74136.8,1.79,0.55,0.67,0,*7A
1508940379.99,61681,11.19,74136.3,1.81,0.83,0.83,0,*7D
1508940381.23,61682,11.19,74132.0,1.81,0.83,0.83,0,*7E
1508940382.45,61683,11.19,74130.5,1.79,0.79,0.79,0,*78
1508940383.67,61684,11.19,74124.3,1.81,0.87,0.97,0,*79
1508940384.88,61685,11.19,74128.0,1.81,0.95,0.97,0,*7B
1508940386.1,61686,11.19,74124.3,1.81,0.87,1.05,0,*41
1508940387.31,61687,11.19,74126.3,1.81,0.95,0.97,0,*79
1508940388.51,61688,11.19,74126.5,1.81,0.97,0.97,0,*74
1508940389.67,61689,11.19,74132.8,1.83,0.97,0.97,0,*77
1508940390.9,61690,11.19,74132.8,1.83,0.91,0.91,0,*7F
1508940392.12,61691,11.19,74134.8,1.83,0.75,0.79,0,*72
1508940393.32,61692,11.19,74142.3,1.83,0.67,0.67,0,*7D
1508940394.53,61693,11.19,74148.3,1.83,0.63,0.67,0,*78
1508940395.74,61694,11.19,74148.0,1.83,0.63,0.63,0,*7B
1508940396.97,61695,11.19,74142.8,1.85,0.63,0.67,0,*78
1508940398.19,61696,11.19,74140.0,1.83,0.55,0.63,0,*7C
1508940399.38,61697,11.19,74144.5,1.83,0.43,0.55,0,*7F
1508940400.57,61698,11.19,74142.0,1.83,0.43,0.51,0,*74
1508940401.78,61699,11.19,74144.3,1.83,0.63,0.63,0,*76
1508940403.01,61700,11.19,74134.3,1.81,0.41,0.41,0,*75
1508940404.25,61701,11.19,74138.0,1.81,0.47,0.51,0,*73
1508940405.48,61702,11.19,74136.0,1.79,0.47,0.55,0,*73
1508940406.71,61703,11.19,74140.5,1.81,0.37,0.41,0,*77
1508940407.94,61704,11.19,74142.0,1.81,0.41,0.41,0,*71
1508940409.16,61705,11.19,74142.3,1.79,0.25,0.33,0,*70
1508940410.4,61706,11.19,74136.0,1.81,0.37,0.29,0,*7C
1508940411.63,61707,11.19,74132.5,1.81,0.29,0.29,0,*72
1508940412.84,61708,11.19,74126.5,1.79,0.33,0.25,0,*7D
1508940414.06,61709,11.19,74126.0,1.79,0.37,0.47,0,*7C
1508940415.3,61710,11.19,74128.3,1.81,0.63,0.59,0,*7D
1508940416.52,61711,11.19,74128.0,1.79,0.55,0.67,0,*73
1508940417.74,61712,11.19,74124.8,1.79,0.59,0.59,0,*71
1508940418.97,61713,11.19,74120.5,1.79,0.47,0.55,0,*73
1508940420.19,61714,11.19,74120.8,1.79,0.47,0.55,0,*74
1508940421.41,61715,11.19,74110.0,1.79,0.47,0.47,0,*76
1508940422.64,61716,11.19,74108.3,1.79,0.55,0.55,0,*75
1508940423.87,61717,11.19,74124.8,1.79,0.55,0.59,0,*78
1508940425.09,61718,11.19,74126.3,1.79,0.59,0.59,0,*7B
1508940426.32,61719,11.19,74130.3,1.81,0.63,0.71,0,*7E
1508940427.54,61720,11.19,74124.8,1.79,0.71,0.71,0,*70
1508940428.76,61721,11.19,74128.5,1.79,0.71,0.71,0,*71
1508940429.98,61722,11.19,74128.5,1.79,0.71,0.79,0,*7A
1508940431.22,61723,11.13,74128.8,1.81,0.71,0.71,0,*74
1508940432.46,61724,11.19,74118.5,1.81,0.63,0.71,0,*70
1508940433.69,61725,11.19,74112.0,1.81,0.59,0.63,0,*7B
1508940434.91,61726,11.19,74114.8,1.79,0.63,0.59,0,*7F
1508940436.15,61727,11.19,74124.0,1.81,0.59,0.71,0,*7A
1508940437.36,61728,11.19,74128.0,1.79,0.59,0.67,0,*75
1508940438.58,61729,11.19,74132.8,1.79,0.71,0.63,0,*7A
1508940439.82,61730,11.19,74132.5,1.81,0.71,0.75,0,*72
1508940441.04,61731,11.19,74132.0,1.79,0.71,0.71,0,*70
1508940442.28,61732,11.19,74134.5,1.81,0.83,0.79,0,*71
1508940443.52,61733,11.19,74134.8,1.81,0.75,0.75,0,*75
1508940444.76,61734,11.19,74132.0,1.81,0.59,0.51,0,*7A
1508940446.0,61735,11.19,74134.3,1.81,0.47,0.59,0,*7C
1508940447.23,61736,11.19,74136.5,1.79,0.55,0.47,0,*74
1508940448.45,61737,11.19,74134.5,1.79,0.47,0.59,0,*79
1508940449.64,61738,11.19,74126.3,1.79,0.43,0.47,0,*7D
1508940450.85,61739,11.13,74118.8,1.79,0.67,0.67,0,*78
1508940452.08,61740,11.19,74128.3,1.79,0.79,0.79,0,*76
1508940453.31,61741,11.19,74128.5,1.81,0.75,0.75,0,*70
1508940454.55,61742,11.19,74120.3,1.81,0.63,0.71,0,*70
1508940455.77,61743,11.13,74104.5,1.79,0.67,0.59,0,*78
1508940456.98,61744,11.19,74130.8,1.79,0.71,0.79,0,*7A
1508940458.22,61745,11.19,74138.8,1.81,0.75,0.83,0,*7D
1508940459.45,61746,11.19,74158.0,1.79,0.55,0.59,0,*7C
1508940460.69,61747,11.19,74138.5,1.81,0.63,0.59,0,*7F
1508940461.93,61748,11.13,74106.5,1.81,0.71,0.63,0,*7A
1508940463.16,61749,11.19,74122.3,1.81,0.75,0.83,0,*71
1508940464.41,61750,11.19,74128.0,1.81,0.87,0.87,0,*70
1508940465.64,61751,11.19,74138.8,1.79,0.91,0.91,0,*76
1508940466.88,61752,11.19,74138.0,1.81,0.71,0.71,0,*72
1508940468.1,61753,11.19,74134.0,1.79,0.71,0.79,0,*7C
1508940469.34,61754,11.19,74154.3,1.81,0.87,0.95,0,*77
1508940470.55,61755,11.19,74146.8,1.83,0.67,0.67,0,*77
1508940471.76,61756,11.19,74142.0,1.83,0.29,0.41,0,*7A
1508940472.99,61757,11.19,74146.8,1.81,0.37,0.41,0,*76
1508940474.22,61758,11.19,74144.0,1.81,0.41,0.41,0,*78
1508940475.46,61759,11.19,74146.5,1.81,0.41,0.47,0,*7F
1508940476.7,61760,11.19,74148.0,1.81,0.37,0.41,0,*72
1508940477.94,61761,11.19,74148.5,1.81,0.47,0.47,0,*72
1508940479.16,61762,11.19,74150.5,1.79,0.47,0.55,0,*75
1508940480.39,61763,11.19,74148.5,1.79,0.55,0.55,0,*77
1508940481.62,61764,11.19,74150.3,1.81,0.71,0.67,0,*70
1508940482.86,61765,11.19,74146.3,1.81,0.75,0.83,0,*7F
1508940484.09,61766,11.19,74144.3,1.79,0.91,0.79,0,*74
1508940485.31,61767,11.19,74144.8,1.79,0.79,0.79,0,*73
1508940486.55,61768,11.19,74140.5,1.81,0.75,0.75,0,*7B
1508940487.8,61769,11.19,74132.3,1.81,0.87,0.87,0,*7A
1508940489.04,61770,11.19,74132.5,1.81,0.71,0.75,0,*76
1508940490.27,61771,11.19,74132.3,1.81,0.59,0.63,0,*7A
1508940491.52,61772,11.19,74130.3,1.81,0.47,0.51,0,*77
1508940492.76,61773,11.19,74126.5,1.81,0.51,0.51,0,*71
1508940494.0,61774,11.19,74120.8,1.81,0.41,0.47,0,*70
1508940495.23,61775,11.19,74126.0,1.81,0.41,0.41,0,*77
1508940496.4,61776,11.19,74134.5,1.79,0.43,0.43,0,*73
1508940497.61,61777,11.19,74128.5,1.83,0.75,0.75,0,*77
1508940498.84,61778,11.19,74130.0,1.79,0.47,0.59,0,*72
1508940500.07,61779,11.19,74130.0,1.81,0.59,0.71,0,*71
1508940501.29,61780,11.19,74132.3,1.79,0.59,0.59,0,*7A
1508940502.51,61781,11.19,74136.0,1.79,0.71,0.79,0,*73
1508940503.75,61782,11.19,74142.5,1.81,0.59,0.63,0,*76
1508940504.99,61783,11.19,74144.0,1.81,0.51,0.59,0,*76
1508940506.22,61784,11.19,74138.5,1.79,0.55,0.59,0,*72
1508940507.46,61785,11.19,74130.3,1.81,0.71,0.71,0,*78
1508940508.68,61786,11.19,74138.0,1.83,0.87,0.87,0,*79
1508940509.88,61787,11.13,74144.0,1.83,1.01,1.09,0,*70
1508940511.06,61788,11.19,74140.3,1.83,0.97,1.01,0,*49
1508940512.26,61789,11.19,74144.3,1.81,1.05,1.05,0,*74
1508940513.49,61790,11.19,74148.8,1.83,1.09,1.09,0,*7E
1508940514.73,61791,11.19,74148.3,1.83,1.09,1.09,0,*7F
1508940515.93,61792,11.13,74146.5,1.83,0.91,1.01,0,*44
1508940517.17,61793,11.19,74148.3,1.85,0.63,0.75,0,*7C
1508940518.41,61794,11.13,74150.0,1.85,0.87,0.79,0,*7D
1508940519.62,61795,11.19,74144.5,1.83,0.63,0.67,0,*7F
1508940520.83,61796,11.19,74142.8,1.83,0.75,0.75,0,*78
1508940522.05,61797,11.19,74144.8,1.85,0.87,0.97,0,*7E
1508940523.3,61798,11.19,74144.5,1.85,0.91,0.91,0,*70
1508940524.54,61799,11.19,74146.0,1.85,0.63,0.55,0,*74
1508940525.73,61800,11.19,74150.5,1.83,0.41,0.43,0,*7A
1508940526.95,61801,11.19,74150.3,1.83,0.51,0.55,0,*7D